Middleton, WI

2:22 PM CST on December 02, 2016 (GMT -0600)
Middleton

Weather History for KC29 - November, 2013

Change the Weather History Date:

Thursday, November 7, 2013

  Actual Average (KMSN) Record (KMSN)
Temperature  
Mean Temperature 35 °F 40 °F  
Max Temperature 42 °F 49 °F 76 °F (1915)
Min Temperature 28 °F 32 °F 1 °F (1991)
Degree Days  
Heating Degree Days 30 25  
Month to date heating degree days 163  
Since 1 July heating degree days 876  
Cooling Degree Days 0 0  
Month to date cooling degree days 0  
Year to date cooling degree days 568  
Moisture  
Dew Point 27 °F    
Average Humidity 74    
Maximum Humidity 92    
Minimum Humidity 58    
Precipitation  
Precipitation 0.00 in 0.07 in 1.12 in (1891)
Month to date precipitation 0.57  
Year to date precipitation 30.92  
Snow  
Snow 0.00 in 0.00 in 3.20 in (1925)
Month to date snowfall 0.3  
Since 1 July snowfall 0.8  
Since 1 September snowfall 0.8  
Snow Depth -    
Sea Level Pressure  
Sea Level Pressure 30.19 in    
Wind  
Wind Speed 7 mph (West)    
Max Wind Speed 13 mph    
Max Gust Speed 17 mph    
Visibility 10 miles    
Events      
T = Trace of Precipitation, MM = Missing Value Source: NWS Daily Summary

Daily Weather History Graph

Daily Weather History Graph

Search for Another Location

Airport or City:

Trip Planner

Search our weather history database for the weather conditions in past years. The results will help you decide how hot, cold, wet, or windy it might be!

Date:

Astronomy

Nov. 07, 2013 Rise Set
Actual Time 6:40 AM CST 4:42 PM CST
Civil Twilight 6:10 AM CST 5:12 PM CST
Nautical Twilight 5:36 AM CST 5:46 PM CST
Astronomical Twilight 5:03 AM CST 6:19 PM CST
Moon 10:50 AM CST (11/7) 8:52 PM CST (11/7)
Length of Visible Light 11h 01m
Length of Day
10h 01m
Waxing Crescent, 23% of the Moon is Illuminated
Nov 7
Waxing Crescent
Nov 9
First Quarter
Nov 17
Full
Nov 25
Last Quarter
Dec 2
New

Hourly Weather History & Observations

Time (CST) Temp. Windchill Dew Point Humidity Pressure Visibility Wind Dir Wind Speed Gust Speed Precip Events Conditions
12:15 AM 30.6 °F 23.1 °F 24.6 °F 79% 30.17 in 10.0 mi West 8.1 mph - N/A   Clear
12:35 AM 30.7 °F 24.1 °F 24.8 °F 79% 30.17 in 10.0 mi West 6.9 mph - N/A   Clear
12:55 AM 30.7 °F 24.9 °F 24.8 °F 79% 30.18 in 10.0 mi West 5.8 mph - N/A   Clear
1:15 AM 29.8 °F 23.9 °F 24.6 °F 81% 30.17 in 10.0 mi West 5.8 mph - N/A   Clear
1:35 AM 30.0 °F 24.1 °F 24.8 °F 81% 30.17 in 10.0 mi West 5.8 mph - N/A   Scattered Clouds
1:55 AM 30.4 °F 24.5 °F 24.8 °F 80% 30.17 in 10.0 mi West 5.8 mph - N/A   Mostly Cloudy
2:15 AM 30.6 °F 22.4 °F 25.2 °F 80% 30.17 in 10.0 mi West 9.2 mph - N/A   Mostly Cloudy
2:35 AM 32.0 °F 24.2 °F 25.7 °F 78% 30.18 in 10.0 mi West 9.2 mph - N/A   Overcast
2:55 AM 31.1 °F 23.1 °F 25.2 °F 79% 30.18 in 10.0 mi West 9.2 mph - N/A   Scattered Clouds
3:15 AM 31.1 °F 23.7 °F 25.3 °F 79% 30.17 in 10.0 mi West 8.1 mph - N/A   Mostly Cloudy
3:35 AM 31.8 °F 24.6 °F 25.5 °F 78% 30.17 in 10.0 mi West 8.1 mph - N/A   Overcast
3:55 AM 32.0 °F 24.8 °F 25.2 °F 76% 30.17 in 10.0 mi West 8.1 mph - N/A   Overcast
4:15 AM 30.2 °F 23.4 °F 24.4 °F 79% 30.17 in 10.0 mi West 6.9 mph - N/A   Scattered Clouds
4:35 AM 30.2 °F 23.4 °F 24.1 °F 78% 30.18 in 10.0 mi West 6.9 mph - N/A   Clear
4:55 AM 30.2 °F 23.4 °F 23.9 °F 77% 30.18 in 10.0 mi West 6.9 mph - N/A   Clear
5:15 AM 29.7 °F 22.8 °F 23.5 °F 78% 30.18 in 10.0 mi West 6.9 mph - N/A   Clear
5:35 AM 29.3 °F 23.2 °F 23.4 °F 78% 30.18 in 10.0 mi West 5.8 mph - N/A   Clear
5:55 AM 29.3 °F 22.3 °F 23.4 °F 78% 30.18 in 10.0 mi West 6.9 mph - N/A   Clear
6:15 AM 29.3 °F 23.2 °F 23.2 °F 78% 30.18 in 10.0 mi West 5.8 mph - N/A   Clear
6:35 AM 28.9 °F 23.9 °F 23.0 °F 78% 30.17 in 10.0 mi West 4.6 mph - N/A   Clear
6:55 AM 29.3 °F 24.3 °F 23.0 °F 77% 30.18 in 10.0 mi West 4.6 mph - N/A   Clear
7:15 AM 30.9 °F 24.3 °F 24.3 °F 76% 30.19 in 10.0 mi West 6.9 mph - N/A   Mostly Cloudy
7:35 AM 31.5 °F 25.8 °F 24.8 °F 76% 30.19 in 10.0 mi West 5.8 mph - N/A   Mostly Cloudy
7:55 AM 32.5 °F 27.1 °F 25.3 °F 75% 30.20 in 10.0 mi West 5.8 mph - N/A   Mostly Cloudy
8:15 AM 33.3 °F 27.1 °F 26.1 °F 75% 30.20 in 10.0 mi West 6.9 mph - N/A   Overcast
8:35 AM 34.0 °F 27.2 °F 26.6 °F 74% 30.20 in 10.0 mi West 8.1 mph - N/A   Overcast
8:55 AM 34.5 °F 27.9 °F 26.6 °F 73% 30.20 in 10.0 mi West 8.1 mph - N/A   Overcast
9:15 AM 35.1 °F 28.6 °F 27.3 °F 73% 30.19 in 10.0 mi West 8.1 mph - N/A   Overcast
9:35 AM 35.6 °F 28.6 °F 28.0 °F 74% 30.20 in 10.0 mi West 9.2 mph - N/A   Overcast
9:55 AM 35.8 °F 29.4 °F 28.2 °F 74% 30.20 in 10.0 mi West 8.1 mph - N/A   Overcast
10:15 AM 37.6 °F 31.0 °F 29.3 °F 72% 30.20 in 10.0 mi WNW 9.2 mph - N/A   Overcast
10:35 AM 39.2 °F 32.0 °F 29.8 °F 69% 30.20 in 10.0 mi WNW 11.5 mph - N/A   Mostly Cloudy
10:55 AM 39.9 °F 34.5 °F 29.8 °F 67% 30.21 in 10.0 mi WNW 8.1 mph - N/A   Mostly Cloudy
11:15 AM 39.9 °F 32.5 °F 29.1 °F 65% 30.21 in 10.0 mi WNW 12.7 mph 16.1 mph N/A   Overcast
11:35 AM 39.6 °F 33.0 °F 29.5 °F 67% 30.20 in 10.0 mi WNW 10.4 mph - N/A   Overcast
11:55 AM 39.4 °F 33.2 °F 30.0 °F 69% 30.19 in 10.0 mi West 9.2 mph - N/A   Mostly Cloudy
12:15 PM 41.0 °F 34.7 °F 30.2 °F 65% 30.18 in 10.0 mi WNW 10.4 mph - N/A   Overcast
12:35 PM 41.2 °F 35.5 °F 30.4 °F 65% 30.18 in 10.0 mi WNW 9.2 mph - N/A   Scattered Clouds
12:55 PM 41.9 °F 35.9 °F 30.4 °F 64% 30.18 in 10.0 mi West 10.4 mph - N/A   Scattered Clouds
1:15 PM 41.9 °F 35.9 °F 29.8 °F 62% 30.18 in 10.0 mi WNW 10.4 mph - N/A   Scattered Clouds
1:35 PM 42.1 °F 37.1 °F 30.2 °F 63% 30.17 in 10.0 mi NW 8.1 mph - N/A   Scattered Clouds
1:55 PM 42.1 °F 37.7 °F 29.5 °F 61% 30.17 in 10.0 mi WNW 6.9 mph - N/A   Scattered Clouds
2:15 PM 42.3 °F 37.3 °F 28.2 °F 58% 30.17 in 10.0 mi WNW 8.1 mph - N/A   Scattered Clouds
2:35 PM 42.6 °F 36.3 °F 29.3 °F 59% 30.17 in 10.0 mi West 11.5 mph - N/A   Scattered Clouds
2:55 PM 41.9 °F 35.0 °F 28.2 °F 58% 30.17 in 10.0 mi WNW 12.7 mph 17.3 mph N/A   Scattered Clouds
3:15 PM 41.7 °F 36.1 °F 28.6 °F 60% 30.17 in 10.0 mi WNW 9.2 mph - N/A   Scattered Clouds
3:35 PM 41.2 °F 36.0 °F 28.2 °F 60% 30.17 in 10.0 mi West 8.1 mph - N/A   Scattered Clouds
3:55 PM 39.9 °F 33.9 °F 28.2 °F 63% 30.17 in 10.0 mi WNW 9.2 mph - N/A   Mostly Cloudy
4:35 PM 38.1 °F 33.7 °F 27.3 °F 65% 30.17 in 10.0 mi West 5.8 mph - N/A   Scattered Clouds
4:55 PM 36.7 °F 29.9 °F 27.0 °F 68% 30.18 in 10.0 mi West 9.2 mph - N/A   Clear
5:15 PM 36.9 °F 30.7 °F 26.4 °F 66% 30.18 in 10.0 mi West 8.1 mph - N/A   Mostly Cloudy
5:35 PM 35.1 °F 32.2 °F 26.6 °F 71% 30.18 in 10.0 mi WSW 3.5 mph - N/A   Mostly Cloudy
5:55 PM 35.2 °F - 26.4 °F 70% 30.18 in 10.0 mi Calm Calm - N/A   Scattered Clouds
6:15 PM 33.4 °F - 26.6 °F 76% 30.18 in 10.0 mi Calm Calm - N/A   Mostly Cloudy
6:35 PM 36.9 °F 33.1 °F 28.6 °F 72% 30.18 in 10.0 mi WNW 4.6 mph - N/A   Overcast
6:55 PM 36.9 °F 34.3 °F 28.4 °F 71% 30.18 in 10.0 mi WSW 3.5 mph - N/A   Overcast
7:15 PM 36.7 °F 34.1 °F 28.9 °F 74% 30.18 in 10.0 mi WSW 3.5 mph - N/A   Overcast
7:35 PM 34.7 °F 29.6 °F 28.8 °F 79% 30.18 in 10.0 mi WSW 5.8 mph - N/A   Scattered Clouds
7:55 PM 33.6 °F 27.5 °F 28.4 °F 81% 30.19 in 10.0 mi West 6.9 mph - N/A   Clear
8:15 PM 33.6 °F 27.5 °F 28.4 °F 81% 30.19 in 10.0 mi West 6.9 mph - N/A   Clear
8:35 PM 33.4 °F 29.1 °F 29.3 °F 85% 30.19 in 10.0 mi NNW 4.6 mph - N/A   Clear
8:55 PM 33.1 °F 27.7 °F 29.1 °F 85% 30.20 in 10.0 mi West 5.8 mph - N/A   Mostly Cloudy
9:15 PM 33.3 °F 28.9 °F 29.7 °F 87% 30.21 in 10.0 mi WNW 4.6 mph - N/A   Overcast
9:35 PM 33.8 °F 30.8 °F 29.5 °F 84% 30.21 in 10.0 mi NW 3.5 mph - N/A   Overcast
9:55 PM 33.6 °F 27.5 °F 29.5 °F 85% 30.22 in 10.0 mi NNW 6.9 mph - N/A   Mostly Cloudy
10:15 PM 33.8 °F 28.6 °F 29.1 °F 83% 30.22 in 10.0 mi NNW 5.8 mph - N/A   Scattered Clouds
10:35 PM 33.6 °F 26.8 °F 28.8 °F 82% 30.22 in 10.0 mi NNW 8.1 mph - N/A   Scattered Clouds
10:55 PM 33.3 °F 27.9 °F 28.4 °F 82% 30.22 in 10.0 mi NNW 5.8 mph - N/A   Clear
11:15 PM 32.2 °F 28.9 °F 28.6 °F 87% 30.22 in 10.0 mi NW 3.5 mph - N/A   Clear
11:35 PM 31.1 °F 26.4 °F 27.5 °F 87% 30.23 in 10.0 mi West 4.6 mph - N/A   Clear
11:55 PM 29.1 °F 23.0 °F 27.0 °F 92% 30.24 in 10.0 mi West 5.8 mph - N/A   Clear